TimeCST,TemperatureF,Dew PointF,Humidity,Sea Level PressureIn,VisibilityMPH,Wind Direction,Wind SpeedMPH,Gust SpeedMPH,PrecipitationIn,Events,Conditions,WindDirDegrees,DateUTC
12:15 AM,19.4,17.6,93,29.52,10.0,SSW,13.8,-,N/A,,Overcast,210,2013-02-05 06:15:00
12:35 AM,19.4,17.6,93,29.53,10.0,SW,13.8,19.6,N/A,,Overcast,230,2013-02-05 06:35:00
12:55 AM,19.4,17.6,93,29.54,7.0,WSW,12.7,-,N/A,,Overcast,240,2013-02-05 06:55:00
1:15 AM,19.4,17.6,93,29.54,7.0,WSW,13.8,18.4,N/A,,Overcast,240,2013-02-05 07:15:00
1:35 AM,19.4,17.6,93,29.54,7.0,WSW,11.5,-,N/A,,Overcast,240,2013-02-05 07:35:00
1:55 AM,19.4,17.6,93,29.55,7.0,WSW,8.1,-,N/A,,Overcast,250,2013-02-05 07:55:00
2:15 AM,19.4,17.6,93,29.56,7.0,West,11.5,-,N/A,,Overcast,280,2013-02-05 08:15:00
2:35 AM,19.4,17.6,93,29.57,5.0,WNW,10.4,-,N/A,,Overcast,290,2013-02-05 08:35:00
2:55 AM,19.4,17.6,93,29.59,5.0,NW,12.7,18.4,N/A,,Overcast,310,2013-02-05 08:55:00
3:15 AM,17.6,17.6,100,29.60,4.0,NW,13.8,17.3,N/A,,Overcast,310,2013-02-05 09:15:00
3:35 AM,17.6,15.8,93,29.61,5.0,NW,16.1,19.6,N/A,,Overcast,320,2013-02-05 09:35:00
3:55 AM,15.8,14.0,93,29.62,7.0,NNW,16.1,-,N/A,,Overcast,340,2013-02-05 09:55:00
4:15 AM,15.8,12.2,86,29.64,7.0,NNW,16.1,-,N/A,,Overcast,340,2013-02-05 10:15:00
4:35 AM,12.2,10.4,92,29.65,7.0,NNW,15.0,21.9,N/A,,Overcast,340,2013-02-05 10:35:00
4:55 AM,12.2,10.4,92,29.67,7.0,NNW,12.7,-,N/A,,Overcast,340,2013-02-05 10:55:00
5:15 AM,10.4,8.6,92,29.69,7.0,NNW,13.8,-,N/A,Snow,Light Snow,340,2013-02-05 11:15:00
5:35 AM,10.4,6.8,85,29.71,10.0,NNW,11.5,-,N/A,,Overcast,340,2013-02-05 11:35:00
5:55 AM,8.6,6.8,92,29.72,10.0,NNW,13.8,-,N/A,,Scattered Clouds,340,2013-02-05 11:55:00
6:15 AM,6.8,3.2,85,29.74,10.0,NNW,13.8,-,N/A,,Scattered Clouds,340,2013-02-05 12:15:00
6:35 AM,5.0,1.4,85,29.75,10.0,NNW,15.0,-,N/A,Snow,Light Snow,340,2013-02-05 12:35:00
6:56 AM,3.2,-0.4,85,29.77,10.0,NNW,10.4,-,N/A,Snow,Light Snow,340,2013-02-05 12:56:00
7:15 AM,1.4,-2.2,85,29.79,10.0,North,10.4,-,N/A,,Scattered Clouds,350,2013-02-05 13:15:00
7:35 AM,-0.4,-2.2,92,29.80,10.0,North,9.2,-,N/A,,Scattered Clouds,350,2013-02-05 13:35:00
7:55 AM,-0.4,-5.8,78,29.82,5.0,North,9.2,-,N/A,,Mostly Cloudy,350,2013-02-05 13:55:00
8:15 AM,-2.2,-5.8,85,29.83,4.0,North,8.1,-,N/A,Snow,Light Snow,360,2013-02-05 14:15:00
8:35 AM,-0.4,-5.8,78,29.85,10.0,North,9.2,-,N/A,,Scattered Clouds,10,2013-02-05 14:35:00
8:55 AM,-0.4,-4.0,85,29.87,10.0,North,10.4,-,N/A,,Clear,360,2013-02-05 14:55:00
9:15 AM,1.4,-4.0,78,29.88,10.0,North,9.2,-,N/A,,Clear,350,2013-02-05 15:15:00
9:35 AM,3.2,-2.2,78,29.89,10.0,North,10.4,-,N/A,,Clear,350,2013-02-05 15:35:00
9:55 AM,3.2,-2.2,78,29.90,10.0,North,10.4,-,N/A,,Clear,360,2013-02-05 15:55:00
10:15 AM,5.0,-2.2,72,29.91,10.0,North,9.2,-,N/A,,Clear,360,2013-02-05 16:15:00
10:35 AM,6.8,-2.2,67,29.92,10.0,North,10.4,-,N/A,,Clear,10,2013-02-05 16:35:00
10:55 AM,6.8,-2.2,67,29.93,10.0,North,6.9,-,N/A,,Clear,360,2013-02-05 16:55:00
11:15 AM,8.6,-2.2,62,29.94,10.0,North,6.9,-,N/A,,Clear,350,2013-02-05 17:15:00
11:35 AM,10.4,-2.2,57,29.95,10.0,Calm,Calm,-,N/A,,Mostly Cloudy,0,2013-02-05 17:35:00
11:55 AM,10.4,-2.2,57,29.96,10.0,North,6.9,-,N/A,,Overcast,360,2013-02-05 17:55:00
12:15 PM,8.6,-0.4,67,29.96,10.0,Calm,Calm,-,N/A,,Overcast,0,2013-02-05 18:15:00
12:35 PM,8.6,-2.2,62,29.96,10.0,NW,6.9,-,N/A,,Overcast,320,2013-02-05 18:35:00
12:55 PM,8.6,-0.4,67,29.97,10.0,WNW,5.8,-,N/A,,Overcast,300,2013-02-05 18:55:00
1:16 PM,10.4,-0.4,62,29.97,10.0,Calm,Calm,-,N/A,,Overcast,0,2013-02-05 19:16:00
1:35 PM,10.4,-0.4,62,29.97,10.0,Calm,Calm,-,N/A,,Overcast,0,2013-02-05 19:35:00
1:55 PM,10.4,-0.4,62,29.97,10.0,NW,6.9,-,N/A,,Mostly Cloudy,310,2013-02-05 19:55:00
2:15 PM,15.8,1.4,53,29.97,10.0,NNW,5.8,-,N/A,,Scattered Clouds,330,2013-02-05 20:15:00
2:35 PM,10.4,-0.4,62,29.97,10.0,North,8.1,-,N/A,,Clear,360,2013-02-05 20:35:00
2:55 PM,8.6,-0.4,67,29.97,10.0,Calm,Calm,-,N/A,,Mostly Cloudy,0,2013-02-05 20:55:00
3:15 PM,10.4,-0.4,62,29.99,10.0,NW,6.9,-,N/A,,Overcast,310,2013-02-05 21:15:00
3:35 PM,8.6,-0.4,67,29.99,10.0,NW,3.5,-,N/A,,Overcast,310,2013-02-05 21:35:00
3:55 PM,8.6,-0.4,67,29.99,10.0,NW,4.6,-,N/A,,Overcast,310,2013-02-05 21:55:00
4:15 PM,6.8,-0.4,72,29.99,10.0,Calm,Calm,-,N/A,,Overcast,0,2013-02-05 22:15:00
4:35 PM,5.0,-0.4,78,29.99,10.0,Calm,Calm,-,N/A,,Scattered Clouds,0,2013-02-05 22:35:00
4:55 PM,6.8,-2.2,67,30.00,10.0,Calm,Calm,-,N/A,,Scattered Clouds,0,2013-02-05 22:55:00
5:15 PM,1.4,-4.0,78,30.00,10.0,Calm,Calm,-,N/A,,Scattered Clouds,0,2013-02-05 23:15:00
5:35 PM,-0.4,-5.8,78,30.00,10.0,Calm,Calm,-,N/A,,Mostly Cloudy,0,2013-02-05 23:35:00
5:55 PM,1.4,-5.8,72,30.00,10.0,Calm,Calm,-,N/A,,Overcast,0,2013-02-05 23:55:00
6:15 PM,1.4,-4.0,78,30.00,10.0,Calm,Calm,-,N/A,,Overcast,0,2013-02-06 00:15:00
6:35 PM,1.4,-2.2,85,30.01,10.0,Calm,Calm,-,N/A,,Overcast,0,2013-02-06 00:35:00
6:55 PM,3.2,-2.2,78,30.01,10.0,Calm,Calm,-,N/A,,Overcast,0,2013-02-06 00:55:00
7:15 PM,3.2,-0.4,85,30.00,10.0,Calm,Calm,-,N/A,,Overcast,0,2013-02-06 01:15:00
7:35 PM,3.2,-0.4,85,30.00,10.0,Calm,Calm,-,N/A,,Overcast,0,2013-02-06 01:35:00
7:55 PM,3.2,-0.4,85,30.00,10.0,Calm,Calm,-,N/A,,Overcast,0,2013-02-06 01:55:00
8:15 PM,3.2,-0.4,85,30.00,10.0,Calm,Calm,-,N/A,,Overcast,0,2013-02-06 02:15:00
8:35 PM,3.2,-0.4,85,29.99,10.0,Calm,Calm,-,N/A,,Overcast,0,2013-02-06 02:35:00
9:15 PM,3.2,-0.4,85,30.00,10.0,Calm,Calm,-,N/A,,Overcast,0,2013-02-06 03:15:00
9:35 PM,5.0,-0.4,78,30.01,10.0,Calm,Calm,-,N/A,,Overcast,0,2013-02-06 03:35:00
9:55 PM,5.0,1.4,85,30.00,10.0,Calm,Calm,-,N/A,,Overcast,0,2013-02-06 03:55:00
10:15 PM,5.0,1.4,85,29.99,10.0,Calm,Calm,-,N/A,,Overcast,0,2013-02-06 04:15:00
10:36 PM,5.0,1.4,85,30.00,10.0,Calm,Calm,-,N/A,,Overcast,0,2013-02-06 04:36:00
10:55 PM,6.8,1.4,79,30.00,10.0,Calm,Calm,-,N/A,,Overcast,0,2013-02-06 04:55:00
11:15 PM,6.8,1.4,79,30.00,10.0,Calm,Calm,-,N/A,,Overcast,0,2013-02-06 05:15:00
11:36 PM,5.0,1.4,85,30.01,10.0,Calm,Calm,-,N/A,,Overcast,0,2013-02-06 05:36:00
11:55 PM,6.8,1.4,79,30.00,10.0,Calm,Calm,-,N/A,,Overcast,0,2013-02-06 05:55:00